Regional Weather Roundup
Issued by NWS

Home | Current Version | Previous Version | Text Only | Print | Product List | Glossary Off
Versions: 1 2 3 4 5 6 7 8 9 10 11 12 13 14 15 16 17 18 19 20 21 22 23 24 25 26 27 28 29 30 31 32 33 34 35 36 37 38 39 40 41 42 43 44 45 46 47 48 49 50

985
ASUS43 KDMX 200701
RWRIA

WEATHER ROUNDUP FOR IOWA
NATIONAL WEATHER SERVICE DES MOINES IA
100 AM CST MON FEB 20 2017

NOTE: "FAIR" INDICATES FEW OR NO CLOUDS BELOW 12,000 FEET WITH NO
SIGNIFICANT WEATHER AND/OR OBSTRUCTIONS TO VISIBILITY.

* - THESE STATIONS ARE NOT NWS STATIONS...THUS NOT UNDER NWS
QUALITY CONTROL.  THEY ALSO DO NOT REPORT WEATHER SUCH
AS PRECIPITATION OR FOG.

IAZ001>003-012>014-020>022-031>034-043>046-200800-
   NORTHWEST IOWA

CITY           SKY/WX    TMP DP  RH WIND       PRES   REMARKS
CARROLL *      CLOUDY    48  48 100 SE5       29.84F
CHEROKEE *     CLOUDY    52  51  97 S7        29.80S
DENISON *      PTCLDY    55  52  88 S13       29.79F
LE MARS *      CLOUDY    54  52  94 S14       29.77S
SHELDON *      CLOUDY    52  52 100 S10G16    29.76S
SIOUX CITY     CLOUDY    56  52  86 S12       29.76F
SPENCER        CLOUDY    50  47  89 S9        29.81F
STORM LAKE *   CLOUDY    50  48  93 S12       29.81F
$$

IAZ055>058-069>071-079>083-090>094-200800-
   SOUTHWEST IOWA

CITY           SKY/WX    TMP DP  RH WIND       PRES   REMARKS
ATLANTIC *     CLOUDY    52  50  93 SW5       29.85S
CLARINDA *       N/A     52  52 100 CALM        N/A
COUNCIL BLFS * MOCLDY    55  55 100 SE9       29.81F
CRESTON *      CLOUDY    54  46  76 SE9       29.88F
HARLAN  *      MOCLDY    54  54 100 S12       29.86S
LAMONI         CLOUDY    59  47  64 SE7       29.88F
RED OAK *      CLOUDY    52  50  93 CALM      29.84F
SHENANDOAH *   CLOUDY    50  50 100 CALM      29.84F
$$

IAZ047>049-059>061-072>074-084-200800-
   CENTRAL IOWA

CITY           SKY/WX    TMP DP  RH WIND       PRES   REMARKS
AMES           CLOUDY    50  47  89 SE7       29.88F
ANKENY *       CLOUDY    54  46  76 S7        29.90F
BOONE *        MOCLDY    50  48  93 SE13      29.87F
CHARITON *     MOCLDY    59  48  67 S13       29.90F
DES MOINES     CLOUDY    59  47  64 SE10      29.89F
GRINNELL*      PTCLDY    51  46  80 SE8       29.95R
KNOXVILLE *    MOCLDY    59  46  63 S8        29.91R
MARSHALLTOWN   CLOUDY    53  46  77 SE12      29.91F
NEWTON *       CLOUDY    52  46  82 SE13      29.91S
PELLA *        PTCLDY    58  47  65 SE7       29.94R
PERRY *          N/A     46  42  89 SE7       29.87F
$$

IAZ004>006-015-016-023>025-035-036-200800-
   NORTH CENTRAL IOWA

CITY           SKY/WX    TMP DP  RH WIND       PRES   REMARKS
ALGONA *       CLOUDY    52  46  82 SE14      29.85S
CLARION *      MOCLDY    50  48  93 SE16      29.87F
ESTHERVILLE    CLOUDY    51  47  86 S15       29.81F
FORT DODGE *   CLOUDY    57  45  62 S9        29.87S
MASON CITY     PTCLDY    47  43  86 SE12      29.90F
FOREST CITY *    N/A     46  43  87 SE12      29.88F
IOWA FALLS *     N/A     49  45  84 SE9       29.91S
$$

IAZ007>011-017>019-026>030-037>042-050>054-066-200800-
   NORTHEAST IOWA

CITY           SKY/WX    TMP DP  RH WIND       PRES   REMARKS
CEDAR RAPIDS   CLOUDY    54  48  80 SE10      29.96S
CHARLES CITY * PTCLDY    50  46  87 SE13      29.93S
CLINTON *      PTCLDY    51  46  83 SE12      30.02F
DECORAH *      CLOUDY    50  41  71 SE12G18   29.95F
DUBUQUE        MOCLDY    50  43  77 SE13      30.01F
MONTICELLO *   CLOUDY    50  45  81 SE7       30.00S
OELWEIN *      CLOUDY    50  45  81 SE12      29.96F
WATERLOO       CLOUDY    53  44  71 SE12      29.93F
$$

IAZ064-065-067-068-078-200800-
   EAST CENTRAL IOWA

CITY           SKY/WX    TMP DP  RH WIND       PRES   REMARKS
DAVENPORT      CLOUDY    54  48  80 S14       30.02S
IOWA CITY      CLOUDY    51  45  79 E6        29.99S
MUSCATINE *    CLOUDY    55  48  76 SE7       30.00R
QUAD CITIES    PTCLDY    53  46  77 CALM      30.00F
$$

IAZ062-063-075>077-085>089-095>099-200800-
   SOUTHEAST IOWA

CITY           SKY/WX    TMP DP  RH WIND       PRES   REMARKS
BURLINGTON     PTCLDY    57  51  80 S10       29.98F
FAIRFIELD *    CLOUDY    57  48  72 S10       29.95S
KEOKUK *       CLOUDY    57  50  77 SE8       29.97S
OTTUMWA        PTCLDY    59  50  72 S14       29.94R
WASHINGTON *   PTCLDY    54  50  87 SE10      29.98R
$$

ABBREVIATIONS USED IN REMARKS
   TC - TEMPERATURES IN CELSIUS
  WCI - WIND CHILL INDEX
   HX - HEAT INDEX
  VSB - VISIBILITY
$$





USA.gov is the U.S. government's official web portal to all federal, state and local government web resources and services.